W3EX Weather Reports


time (UTC)temp
C
wind
direction
speed
KPH
gust
KPH
rain 1hr
cm
rain 24hr
cm
rain mn
cm
humidity
%
barometer
mb
20260505181502 27 277 6.4 35.4 0.00 0.00 0.00 35 1005.4
20260505174504 27 240 8.0 29.0 0.00 0.00 0.00 36 1005.6
20260505173103 27 190 8.0 16.1 0.00 0.00 0.00 39 1005.7
20260505171506 26 44 3.2 24.1 0.00 0.00 0.00 40 1005.6
20260505170114 27 201 8.0 24.1 0.00 0.00 0.00 39 1005.9
20260505164502 26 195 9.7 17.7 0.00 0.00 0.00 40 1006.0
20260505163111 26 210 3.2 24.1 0.00 0.00 0.00 45 1006.1
20260505161502 26 190 6.4 17.7 0.00 0.00 0.00 41 1006.1
20260505160104 26 43 3.2 12.9 0.00 0.00 0.00 43 1006.3
20260505153111 25 232 3.2 16.1 0.00 0.00 0.00 44 1006.6
20260505151502 24 227 3.2 11.3 0.00 0.00 0.00 50 1006.6
20260505150116 23 33 1.6 9.7 0.00 0.00 0.00 46 1006.8
20260505124608 17 232 1.6 11.3 0.00 0.00 0.00 63 1007.8
20260505123002 17 9 1.6 9.7 0.00 0.00 0.00 64 1007.8
20260505121602 16 198 1.6 12.9 0.00 0.00 0.00 65 1007.5
20260505120003 16 203 4.8 11.3 0.00 0.00 0.00 67 1007.6
20260505114606 15 217 3.2 8.0 0.00 0.00 0.00 70 1007.5
20260505113006 14 192 1.6 4.8 0.00 0.00 0.00 74 1007.5
20260505111604 12 201 0.0 3.2 0.00 0.00 0.00 84 1007.2
20260505101602 11 201 1.6 3.2 0.00 0.00 0.00 81 1007.1
20260505100003 11 201 0.0 0.0 0.00 0.00 0.00 79 1006.9
20260505094611 12 201 0.0 0.0 0.00 0.00 0.00 78 1006.8
20260505093003 12 201 0.0 3.2 0.00 0.00 0.00 76 1006.8
20260505091603 12 201 0.0 0.0 0.00 0.00 0.00 74 1006.8
20260505090004 13 201 0.0 0.0 0.00 0.00 0.00 72 1006.6
20260505084503 13 201 0.0 3.2 0.00 0.00 0.00 71 1006.4
20260505083110 13 218 0.0 1.6 0.00 0.00 0.00 69 1006.5
20260505081504 15 218 0.0 1.6 0.00 0.00 0.00 66 1006.4
20260505080104 15 203 1.6 6.4 0.00 0.00 0.00 64 1006.5
20260505074503 15 209 0.0 6.4 0.00 0.00 0.00 66 1006.5
20260505073102 14 317 0.0 3.2 0.00 0.00 0.00 68 1006.6
20260505071502 14 208 0.0 0.0 0.00 0.00 0.00 67 1006.6
20260505064502 15 208 0.0 3.2 0.00 0.00 0.00 62 1006.6
20260505063105 15 202 0.0 4.8 0.00 0.00 0.00 62 1006.6
20260505061505 15 201 0.0 3.2 0.00 0.00 0.00 61 1006.5
20260505060105 15 207 1.6 3.2 0.00 0.00 0.00 59 1006.6
20260505054502 16 213 1.6 4.8 0.00 0.00 0.00 58 1006.4
20260505053107 16 196 1.6 8.0 0.00 0.00 0.00 57 1006.4
20260505051503 16 192 1.6 6.4 0.00 0.00 0.00 56 1006.5
20260505050128 16 200 3.2 6.4 0.00 0.00 0.00 56 1006.6
20260505041611 16 200 3.2 8.0 0.00 0.00 0.00 53 1006.5
20260505040002 16 196 3.2 11.3 0.00 0.00 0.00 52 1006.3
20260505034603 16 181 3.2 9.7 0.00 0.00 0.00 51 1006.4
20260505033003 16 192 3.2 6.4 0.00 0.00 0.00 52 1006.4
20260505031602 16 193 0.0 3.2 0.00 0.00 0.00 52 1006.5
20260505030002 16 188 0.0 4.8 0.00 0.00 0.00 52 1006.4
20260505024603 16 184 0.0 3.2 0.00 0.00 0.00 52 1006.6
20260505023002 16 174 0.0 3.2 0.00 0.00 0.00 51 1006.7
20260505021602 16 185 0.0 4.8 0.00 0.00 0.00 50 1006.7
20260505020004 17 198 0.0 4.8 0.00 0.00 0.00 49 1006.7
20260505014631 16 198 3.2 9.7 0.00 0.00 0.00 49 1006.7
20260505013002 16 200 0.0 3.2 0.00 0.00 0.00 52 1006.6
20260505011607 16 197 0.0 3.2 0.00 0.00 0.00 53 1006.6
20260505010002 16 197 0.0 0.0 0.00 0.00 0.00 51 1006.3
20260505004603 17 197 0.0 0.0 0.00 0.00 0.00 48 1006.2
20260505003003 18 197 0.0 3.2 0.00 0.00 0.00 46 1006.0
20260505001633 19 205 0.0 3.2 0.00 0.00 0.00 43 1006.0
20260505000003 20 210 1.6 11.3 0.00 0.00 0.00 41 1005.9
20260504234615 20 221 4.8 14.5 0.00 0.00 0.00 40 1005.9
20260504233002 20 207 3.2 14.5 0.00 0.00 0.00 39 1005.7
20260504231602 21 203 4.8 14.5 0.00 0.00 0.00 38 1005.6
20260504230002 21 209 4.8 20.9 0.00 0.00 0.00 37 1005.6
20260504224611 21 191 6.4 14.5 0.00 0.00 0.00 37 1005.6
20260504223002 21 194 8.0 16.1 0.00 0.00 0.00 37 1005.6
20260504221603 21 212 4.8 16.1 0.00 0.00 0.00 38 1005.7
20260504220044 22 234 1.6 12.9 0.00 0.00 0.00 37 1005.8
20260504214502 21 194 3.2 16.1 0.00 0.00 0.00 37 1005.8
20260504213148 21 219 6.4 16.1 0.00 0.00 0.00 37 1005.8
20260504211508 22 202 4.8 17.7 0.00 0.00 0.00 38 1005.9
20260504204502 22 194 3.2 17.7 0.00 0.00 0.00 39 1005.9
20260504203123 22 206 3.2 17.7 0.00 0.00 0.00 37 1005.9
20260504201504 22 281 3.2 19.3 0.00 0.00 0.00 37 1006.1
20260504194502 22 178 4.8 19.3 0.00 0.00 0.00 38 1006.3
20260504193112 21 241 6.4 19.3 0.00 0.00 0.00 36 1006.4
20260504191502 21 301 4.8 16.1 0.00 0.00 0.00 38 1006.5
20260504190120 21 284 4.8 20.9 0.00 0.00 0.00 39 1006.8
20260504184504 21 175 4.8 24.1 0.00 0.00 0.00 36 1006.9
20260504183101 21 189 8.0 22.5 0.00 0.00 0.00 37 1007.1